Year,Month,Day,Hour,Minute,Value (Times are PST for temperature in C)
2011,11,25,00,00,7.30
2011,11,25,00,01,7.30
2011,11,25,00,02,7.30
2011,11,25,00,03,7.30
2011,11,25,00,04,7.30
2011,11,25,00,05,7.30
2011,11,25,00,06,7.30
2011,11,25,00,07,7.20
2011,11,25,00,08,7.20
2011,11,25,00,09,7.20
2011,11,25,00,10,7.20
2011,11,25,00,11,7.20
2011,11,25,00,12,7.20
2011,11,25,00,13,7.10
2011,11,25,00,14,7.10
2011,11,25,00,15,7.00
2011,11,25,00,16,7.00
2011,11,25,00,17,6.90
2011,11,25,00,18,6.90
2011,11,25,00,19,6.90
2011,11,25,00,20,6.90
2011,11,25,00,21,6.90
2011,11,25,00,22,6.90
2011,11,25,00,23,6.80
2011,11,25,00,24,6.80
2011,11,25,00,25,6.80
2011,11,25,00,26,6.80
2011,11,25,00,27,6.80
2011,11,25,00,28,6.80
2011,11,25,00,29,6.80
2011,11,25,00,30,6.80
2011,11,25,00,31,6.80
2011,11,25,00,32,6.80
2011,11,25,00,33,6.80
2011,11,25,00,34,6.80
2011,11,25,00,35,6.80
2011,11,25,00,36,6.80
2011,11,25,00,37,6.80
2011,11,25,00,38,6.80
2011,11,25,00,39,6.80
2011,11,25,00,40,6.80
2011,11,25,00,41,6.80
2011,11,25,00,42,6.70
2011,11,25,00,43,6.70
2011,11,25,00,44,6.70
2011,11,25,00,45,6.70
2011,11,25,00,46,6.60
2011,11,25,00,47,6.60
2011,11,25,00,48,6.60
2011,11,25,00,49,6.60
2011,11,25,00,50,6.60
2011,11,25,00,51,6.60
2011,11,25,00,52,6.50
2011,11,25,00,53,6.50
2011,11,25,00,54,6.50
2011,11,25,00,55,6.50
2011,11,25,00,56,6.40
2011,11,25,00,57,6.40
2011,11,25,00,58,6.40
2011,11,25,00,59,6.40
2011,11,25,01,00,6.40
2011,11,25,01,01,6.40
2011,11,25,01,02,6.30
2011,11,25,01,03,6.30
2011,11,25,01,04,6.30
2011,11,25,01,05,6.30
2011,11,25,01,06,6.30
2011,11,25,01,07,6.20
2011,11,25,01,08,6.20
2011,11,25,01,09,6.20
2011,11,25,01,10,6.20
2011,11,25,01,11,6.20
2011,11,25,01,12,6.20
2011,11,25,01,13,6.20
2011,11,25,01,14,6.20
2011,11,25,01,15,6.20
2011,11,25,01,16,6.20
2011,11,25,01,17,6.20
2011,11,25,01,18,6.20
2011,11,25,01,19,6.20
2011,11,25,01,20,6.20
2011,11,25,01,21,6.10
2011,11,25,01,22,6.10
2011,11,25,01,23,6.10
2011,11,25,01,24,6.10
2011,11,25,01,25,6.10
2011,11,25,01,26,6.10
2011,11,25,01,27,6.10
2011,11,25,01,28,6.10
2011,11,25,01,29,6.10
2011,11,25,01,30,6.10
2011,11,25,01,31,6.00
2011,11,25,01,32,6.00
2011,11,25,01,33,6.00
2011,11,25,01,34,6.00
2011,11,25,01,35,6.00
2011,11,25,01,36,6.00
2011,11,25,01,37,5.90
2011,11,25,01,38,5.90
2011,11,25,01,39,5.90
2011,11,25,01,40,5.90
2011,11,25,01,41,5.80
2011,11,25,01,42,5.80
2011,11,25,01,43,5.80
2011,11,25,01,44,5.80
2011,11,25,01,45,5.80
2011,11,25,01,46,5.80
2011,11,25,01,47,5.80
2011,11,25,01,48,5.80
2011,11,25,01,49,5.80
2011,11,25,01,50,5.80
2011,11,25,01,51,5.80
2011,11,25,01,52,5.80
2011,11,25,01,53,5.70
2011,11,25,01,54,5.70
2011,11,25,01,55,5.70
2011,11,25,01,56,5.70
2011,11,25,01,57,5.70
2011,11,25,01,58,5.60
2011,11,25,01,59,5.60
2011,11,25,02,00,5.60
2011,11,25,02,01,5.60
2011,11,25,02,02,5.60
2011,11,25,02,03,5.60
2011,11,25,02,04,5.60
2011,11,25,02,05,5.50
2011,11,25,02,06,5.50
2011,11,25,02,07,5.50
2011,11,25,02,08,5.50
2011,11,25,02,09,5.50
2011,11,25,02,10,5.40
2011,11,25,02,11,5.40
2011,11,25,02,12,5.40
2011,11,25,02,13,5.40
2011,11,25,02,14,5.30
2011,11,25,02,15,5.30
2011,11,25,02,16,5.30
2011,11,25,02,17,5.30
2011,11,25,02,18,5.30
2011,11,25,02,19,5.20
2011,11,25,02,20,5.20
2011,11,25,02,21,5.20
2011,11,25,02,22,5.20
2011,11,25,02,23,5.10
2011,11,25,02,24,5.10
2011,11,25,02,25,5.10
2011,11,25,02,26,5.10
2011,11,25,02,27,5.00
2011,11,25,02,28,5.00
2011,11,25,02,29,4.90
2011,11,25,02,30,4.90
2011,11,25,02,31,4.90
2011,11,25,02,32,4.90
2011,11,25,02,33,4.80
2011,11,25,02,34,4.80
2011,11,25,02,35,4.80
2011,11,25,02,36,4.80
2011,11,25,02,37,4.80
2011,11,25,02,38,4.80
2011,11,25,02,39,4.80
2011,11,25,02,40,4.80
2011,11,25,02,41,4.80
2011,11,25,02,42,4.80
2011,11,25,02,43,4.80
2011,11,25,02,44,4.80
2011,11,25,02,45,4.80
2011,11,25,02,46,4.80
2011,11,25,02,47,4.70
2011,11,25,02,48,4.70
2011,11,25,02,49,4.70
2011,11,25,02,50,4.70
2011,11,25,02,51,4.60
2011,11,25,02,52,4.60
2011,11,25,02,53,4.60
2011,11,25,02,54,4.50
2011,11,25,02,55,4.50
2011,11,25,02,56,4.50
2011,11,25,02,57,4.40
2011,11,25,02,58,4.40
2011,11,25,02,59,4.40
2011,11,25,03,00,4.40
2011,11,25,03,01,4.40
2011,11,25,03,02,4.40
2011,11,25,03,03,4.40
2011,11,25,03,04,4.50
2011,11,25,03,05,4.50
2011,11,25,03,06,4.60
2011,11,25,03,07,4.70
2011,11,25,03,08,4.70
2011,11,25,03,09,4.80
2011,11,25,03,10,4.80
2011,11,25,03,11,4.90
2011,11,25,03,12,4.90
2011,11,25,03,13,4.90
2011,11,25,03,14,5.00
2011,11,25,03,15,5.00
2011,11,25,03,16,5.10
2011,11,25,03,17,5.10
2011,11,25,03,18,5.10
2011,11,25,03,19,5.20
2011,11,25,03,20,5.20
2011,11,25,03,21,5.20
2011,11,25,03,22,5.20
2011,11,25,03,23,5.20
2011,11,25,03,24,5.20
2011,11,25,03,25,5.20
2011,11,25,03,26,5.20
2011,11,25,03,27,5.20
2011,11,25,03,28,5.20
2011,11,25,03,29,5.20
2011,11,25,03,30,5.20
2011,11,25,03,31,5.20
2011,11,25,03,32,5.20
2011,11,25,03,33,5.20
2011,11,25,03,34,5.20
2011,11,25,03,35,5.20
2011,11,25,03,36,5.20
2011,11,25,03,37,5.20
2011,11,25,03,38,5.10
2011,11,25,03,39,5.10
2011,11,25,03,40,5.10
2011,11,25,03,41,5.10
2011,11,25,03,42,5.10
2011,11,25,03,43,5.10
2011,11,25,03,44,5.10
2011,11,25,03,45,5.00
2011,11,25,03,46,5.00
2011,11,25,03,47,5.00
2011,11,25,03,48,5.00
2011,11,25,03,49,4.90
2011,11,25,03,50,4.90
2011,11,25,03,51,4.90
2011,11,25,03,52,4.90
2011,11,25,03,53,4.90
2011,11,25,03,54,4.90
2011,11,25,03,55,4.90
2011,11,25,03,56,4.90
2011,11,25,03,57,4.90
2011,11,25,03,58,4.90
2011,11,25,03,59,4.90
2011,11,25,04,00,4.90
2011,11,25,04,01,4.90
2011,11,25,04,02,4.80
2011,11,25,04,03,4.80
2011,11,25,04,04,4.80
2011,11,25,04,05,4.80
2011,11,25,04,06,4.80
2011,11,25,04,07,4.70
2011,11,25,04,08,4.70
2011,11,25,04,09,4.70
2011,11,25,04,10,4.60
2011,11,25,04,11,4.60
2011,11,25,04,12,4.60
2011,11,25,04,13,4.60
2011,11,25,04,14,4.50
2011,11,25,04,15,4.50
2011,11,25,04,16,4.50
2011,11,25,04,17,4.40
2011,11,25,04,18,4.40
2011,11,25,04,19,4.30
2011,11,25,04,20,4.30
2011,11,25,04,21,4.30
2011,11,25,04,22,4.30
2011,11,25,04,23,4.20
2011,11,25,04,24,4.20
2011,11,25,04,25,4.20
2011,11,25,04,26,4.20
2011,11,25,04,27,4.20
2011,11,25,04,28,4.20
2011,11,25,04,29,4.20
2011,11,25,04,30,4.30
2011,11,25,04,31,4.30
2011,11,25,04,32,4.40
2011,11,25,04,33,4.40
2011,11,25,04,34,4.40
2011,11,25,04,35,4.40
2011,11,25,04,36,4.50
2011,11,25,04,37,4.50
2011,11,25,04,38,4.50
2011,11,25,04,39,4.50
2011,11,25,04,40,4.60
2011,11,25,04,41,4.60
2011,11,25,04,42,4.70
2011,11,25,04,43,4.70
2011,11,25,04,44,4.70
2011,11,25,04,45,4.80
2011,11,25,04,46,4.80
2011,11,25,04,47,4.80
2011,11,25,04,48,4.80
2011,11,25,04,49,4.80
2011,11,25,04,50,4.80
2011,11,25,04,51,4.80
2011,11,25,04,52,4.80
2011,11,25,04,53,4.80
2011,11,25,04,54,4.70
2011,11,25,04,55,4.70
2011,11,25,04,56,4.60
2011,11,25,04,57,4.50
2011,11,25,04,58,4.50
2011,11,25,04,59,4.40
2011,11,25,05,00,4.30
2011,11,25,05,01,4.30
2011,11,25,05,02,4.20
2011,11,25,05,03,4.10
2011,11,25,05,04,4.00
2011,11,25,05,05,3.90
2011,11,25,05,06,3.80
2011,11,25,05,07,3.70
2011,11,25,05,08,3.60
2011,11,25,05,09,3.50
2011,11,25,05,10,3.40
2011,11,25,05,11,3.20
2011,11,25,05,12,3.10
2011,11,25,05,13,2.90
2011,11,25,05,14,2.80
2011,11,25,05,15,2.70
2011,11,25,05,16,2.50
2011,11,25,05,17,2.40
2011,11,25,05,18,2.20
2011,11,25,05,19,2.10
2011,11,25,05,20,2.00
2011,11,25,05,21,2.00
2011,11,25,05,22,1.90
2011,11,25,05,23,1.80
2011,11,25,05,24,1.70
2011,11,25,05,25,1.70
2011,11,25,05,26,1.70
2011,11,25,05,27,1.80
2011,11,25,05,28,1.80
2011,11,25,05,29,1.90
2011,11,25,05,30,2.00
2011,11,25,05,31,2.10
2011,11,25,05,32,2.10
2011,11,25,05,33,2.10
2011,11,25,05,34,2.10
2011,11,25,05,35,2.00
2011,11,25,05,36,2.00
2011,11,25,05,37,1.90
2011,11,25,05,38,1.90
2011,11,25,05,39,1.80
2011,11,25,05,40,1.70
2011,11,25,05,41,1.70
2011,11,25,05,42,1.70
2011,11,25,05,43,1.70
2011,11,25,05,44,1.70
2011,11,25,05,45,1.80
2011,11,25,05,46,1.80
2011,11,25,05,47,1.90
2011,11,25,05,48,1.90
2011,11,25,05,49,1.90
2011,11,25,05,50,2.00
2011,11,25,05,51,2.00
2011,11,25,05,52,2.10
2011,11,25,05,53,2.20
2011,11,25,05,54,2.30
2011,11,25,05,55,2.40
2011,11,25,05,56,2.40
2011,11,25,05,57,2.40
2011,11,25,05,58,2.50
2011,11,25,05,59,2.50
2011,11,25,06,00,2.50
2011,11,25,06,01,2.50
2011,11,25,06,02,2.50
2011,11,25,06,03,2.50
2011,11,25,06,04,2.50
2011,11,25,06,05,2.40
2011,11,25,06,06,2.40
2011,11,25,06,07,2.30
2011,11,25,06,08,2.30
2011,11,25,06,09,2.20
2011,11,25,06,10,2.20
2011,11,25,06,11,2.10
2011,11,25,06,12,2.00
2011,11,25,06,13,1.80
2011,11,25,06,14,1.70
2011,11,25,06,15,1.60
2011,11,25,06,16,1.60
2011,11,25,06,17,1.50
2011,11,25,06,18,1.40
2011,11,25,06,19,1.30
2011,11,25,06,20,1.30
2011,11,25,06,21,1.30
2011,11,25,06,22,1.20
2011,11,25,06,23,1.20
2011,11,25,06,24,1.10
2011,11,25,06,25,1.00
2011,11,25,06,26,0.90
2011,11,25,06,27,0.90
2011,11,25,06,28,0.80
2011,11,25,06,29,0.70
2011,11,25,06,30,0.70
2011,11,25,06,31,0.60
2011,11,25,06,32,0.60
2011,11,25,06,33,0.50
2011,11,25,06,34,0.40
2011,11,25,06,35,0.40
2011,11,25,06,36,0.40
2011,11,25,06,37,0.30
2011,11,25,06,38,0.30
2011,11,25,06,39,0.30
2011,11,25,06,40,0.30
2011,11,25,06,41,0.30
2011,11,25,06,42,0.20
2011,11,25,06,43,0.20
2011,11,25,06,44,0.10
2011,11,25,06,45,0.10
2011,11,25,06,46,0.00
2011,11,25,06,47,0.00
2011,11,25,06,48,0.00
2011,11,25,06,49,0.00
2011,11,25,06,50,-0.10
2011,11,25,06,51,-0.10
2011,11,25,06,52,-0.10
2011,11,25,06,53,-0.10
2011,11,25,06,54,-0.10
2011,11,25,06,55,-0.20
2011,11,25,06,56,-0.20
2011,11,25,06,57,-0.20
2011,11,25,06,58,-0.20
2011,11,25,06,59,-0.20
2011,11,25,07,00,-0.20
2011,11,25,07,01,-0.20
2011,11,25,07,02,-0.20
2011,11,25,07,03,-0.20
2011,11,25,07,04,-0.10
2011,11,25,07,05,-0.10
2011,11,25,07,06,0.00
2011,11,25,07,07,0.00
2011,11,25,07,08,0.00
2011,11,25,07,09,0.10
2011,11,25,07,10,0.10
2011,11,25,07,11,0.20
2011,11,25,07,12,0.20
2011,11,25,07,13,0.30
2011,11,25,07,14,0.40
2011,11,25,07,15,0.40
2011,11,25,07,16,0.50
2011,11,25,07,17,0.50
2011,11,25,07,18,0.40
2011,11,25,07,19,0.40
2011,11,25,07,20,0.40
2011,11,25,07,21,0.40
2011,11,25,07,22,0.40
2011,11,25,07,23,0.40
2011,11,25,07,24,0.30
2011,11,25,07,25,0.30
2011,11,25,07,26,0.30
2011,11,25,07,27,0.30
2011,11,25,07,28,0.20
2011,11,25,07,29,0.20
2011,11,25,07,30,0.20
2011,11,25,07,31,0.20
2011,11,25,07,32,0.10
2011,11,25,07,33,0.10
2011,11,25,07,34,0.10
2011,11,25,07,35,0.10
2011,11,25,07,36,0.00
2011,11,25,07,37,0.00
2011,11,25,07,38,-0.10
2011,11,25,07,39,-0.10
2011,11,25,07,40,-0.20
2011,11,25,07,41,-0.20
2011,11,25,07,42,-0.30
2011,11,25,07,43,-0.30
2011,11,25,07,44,-0.30
2011,11,25,07,45,-0.40
2011,11,25,07,46,-0.40
2011,11,25,07,47,-0.40
2011,11,25,07,48,-0.40
2011,11,25,07,49,-0.50
2011,11,25,07,50,-0.50
2011,11,25,07,51,-0.50
2011,11,25,07,52,-0.50
2011,11,25,07,53,-0.60
2011,11,25,07,54,-0.60
2011,11,25,07,55,-0.60
2011,11,25,07,56,-0.60
2011,11,25,07,57,-0.60
2011,11,25,07,58,-0.70
2011,11,25,07,59,-0.70
2011,11,25,08,00,-0.70
2011,11,25,08,01,-0.70
2011,11,25,08,02,-0.70
2011,11,25,08,03,-0.70
2011,11,25,08,04,-0.70
2011,11,25,08,05,-0.70
2011,11,25,08,06,-0.70
2011,11,25,08,07,-0.60
2011,11,25,08,08,-0.60
2011,11,25,08,09,-0.60
2011,11,25,08,10,-0.60
2011,11,25,08,11,-0.60
2011,11,25,08,12,-0.60
2011,11,25,08,13,-0.60
2011,11,25,08,14,-0.50
2011,11,25,08,15,-0.50
2011,11,25,08,16,-0.40
2011,11,25,08,17,-0.40
2011,11,25,08,18,-0.40
2011,11,25,08,19,-0.30
2011,11,25,08,20,-0.30
2011,11,25,08,21,-0.30
2011,11,25,08,22,-0.30
2011,11,25,08,23,-0.30
2011,11,25,08,24,-0.30
2011,11,25,08,25,-0.30
2011,11,25,08,26,-0.30
2011,11,25,08,27,-0.30
2011,11,25,08,28,-0.30
2011,11,25,08,29,-0.20
2011,11,25,08,30,-0.20
2011,11,25,08,31,-0.20
2011,11,25,08,32,-0.20
2011,11,25,08,33,-0.20
2011,11,25,08,34,-0.20
2011,11,25,08,35,-0.10
2011,11,25,08,36,-0.10
2011,11,25,08,37,-0.10
2011,11,25,08,38,0.00
2011,11,25,08,39,0.00
2011,11,25,08,40,0.10
2011,11,25,08,41,0.20
2011,11,25,08,42,0.30
2011,11,25,08,43,0.40
2011,11,25,08,44,0.50
2011,11,25,08,45,0.50
2011,11,25,08,46,0.60
2011,11,25,08,47,0.70
2011,11,25,08,48,0.80
2011,11,25,08,49,0.80
2011,11,25,08,50,0.90
2011,11,25,08,51,1.00
2011,11,25,08,52,1.10
2011,11,25,08,53,1.30
2011,11,25,08,54,1.60
2011,11,25,08,55,1.90
2011,11,25,08,56,2.10
2011,11,25,08,57,2.30
2011,11,25,08,58,2.60
2011,11,25,08,59,2.80
2011,11,25,09,00,2.90
2011,11,25,09,01,3.10
2011,11,25,09,02,3.30
2011,11,25,09,03,3.50
2011,11,25,09,04,3.60
2011,11,25,09,05,3.70
2011,11,25,09,06,3.80
2011,11,25,09,07,3.90
2011,11,25,09,08,4.00
2011,11,25,09,09,4.10
2011,11,25,09,10,4.20
2011,11,25,09,11,4.20
2011,11,25,09,12,4.30
2011,11,25,09,13,4.40
2011,11,25,09,14,4.50
2011,11,25,09,15,4.60
2011,11,25,09,16,4.70
2011,11,25,09,17,4.70
2011,11,25,09,18,4.80
2011,11,25,09,19,4.90
2011,11,25,09,20,4.90
2011,11,25,09,21,5.00
2011,11,25,09,22,5.10
2011,11,25,09,23,5.10
2011,11,25,09,24,5.20
2011,11,25,09,25,5.20
2011,11,25,09,26,5.20
2011,11,25,09,27,5.20
2011,11,25,09,28,5.30
2011,11,25,09,29,5.20
2011,11,25,09,30,5.30
2011,11,25,09,31,5.30
2011,11,25,09,32,5.30
2011,11,25,09,33,5.30
2011,11,25,09,34,5.40
2011,11,25,09,35,5.40
2011,11,25,09,36,5.50
2011,11,25,09,37,5.60
2011,11,25,09,38,5.70
2011,11,25,09,39,5.70
2011,11,25,09,40,5.80
2011,11,25,09,41,5.90
2011,11,25,09,42,6.00
2011,11,25,09,43,6.00
2011,11,25,09,44,6.10
2011,11,25,09,45,6.20
2011,11,25,09,46,6.20
2011,11,25,09,47,6.30
2011,11,25,09,48,6.30
2011,11,25,09,49,6.30
2011,11,25,09,50,6.30
2011,11,25,09,51,6.30
2011,11,25,09,52,6.30
2011,11,25,09,53,6.30
2011,11,25,09,54,6.30
2011,11,25,09,55,6.30
2011,11,25,09,56,6.40
2011,11,25,09,57,6.40
2011,11,25,09,58,6.50
2011,11,25,09,59,6.50
2011,11,25,10,00,6.60
2011,11,25,10,01,6.60
2011,11,25,10,02,6.60
2011,11,25,10,03,6.60
2011,11,25,10,04,6.60
2011,11,25,10,05,6.50
2011,11,25,10,06,6.60
2011,11,25,10,07,6.60
2011,11,25,10,08,6.60
2011,11,25,10,09,6.60
2011,11,25,10,10,6.70
2011,11,25,10,11,6.70
2011,11,25,10,12,6.80
2011,11,25,10,13,6.80
2011,11,25,10,14,6.80
2011,11,25,10,15,6.90
2011,11,25,10,16,6.90
2011,11,25,10,17,6.90
2011,11,25,10,18,7.00
2011,11,25,10,19,7.00
2011,11,25,10,20,7.00
2011,11,25,10,21,7.10
2011,11,25,10,22,7.00
2011,11,25,10,23,7.00
2011,11,25,10,24,7.00
2011,11,25,10,25,7.00
2011,11,25,10,26,7.00
2011,11,25,10,27,7.00
2011,11,25,10,28,7.00
2011,11,25,10,29,7.00
2011,11,25,10,30,7.00
2011,11,25,10,31,7.00
2011,11,25,10,32,6.90
2011,11,25,10,33,6.90
2011,11,25,10,34,6.90
2011,11,25,10,35,6.90
2011,11,25,10,36,6.90
2011,11,25,10,37,6.90
2011,11,25,10,38,6.90
2011,11,25,10,39,6.90
2011,11,25,10,40,6.90
2011,11,25,10,41,6.90
2011,11,25,10,42,6.80
2011,11,25,10,43,6.80
2011,11,25,10,44,6.80
2011,11,25,10,45,6.80
2011,11,25,10,46,6.80
2011,11,25,10,47,6.80
2011,11,25,10,48,6.80
2011,11,25,10,49,6.80
2011,11,25,10,50,6.80
2011,11,25,10,51,6.80
2011,11,25,10,52,6.80
2011,11,25,10,53,6.80
2011,11,25,10,54,6.90
2011,11,25,10,55,6.90
2011,11,25,10,56,6.90
2011,11,25,10,57,7.00
2011,11,25,10,58,7.00
2011,11,25,10,59,7.00
2011,11,25,11,00,7.10
2011,11,25,11,01,7.20
2011,11,25,11,02,7.20
2011,11,25,11,03,7.20
2011,11,25,11,04,7.20
2011,11,25,11,05,7.30
2011,11,25,11,06,7.30
2011,11,25,11,07,7.40
2011,11,25,11,08,7.40
2011,11,25,11,09,7.40
2011,11,25,11,10,7.50
2011,11,25,11,11,7.50
2011,11,25,11,12,7.50
2011,11,25,11,13,7.60
2011,11,25,11,14,7.60
2011,11,25,11,15,7.70
2011,11,25,11,16,7.70
2011,11,25,11,17,7.70
2011,11,25,11,18,7.80
2011,11,25,11,19,7.80
2011,11,25,11,20,7.90
2011,11,25,11,21,7.90
2011,11,25,11,22,8.00
2011,11,25,11,23,8.00
2011,11,25,11,24,8.00
2011,11,25,11,25,8.10
2011,11,25,11,26,8.10
2011,11,25,11,27,8.20
2011,11,25,11,28,8.20
2011,11,25,11,29,8.30
2011,11,25,11,30,8.40
2011,11,25,11,31,8.40
2011,11,25,11,32,8.40
2011,11,25,11,33,8.50
2011,11,25,11,34,8.50
2011,11,25,11,35,8.60
2011,11,25,11,36,8.60
2011,11,25,11,37,8.70
2011,11,25,11,38,8.70
2011,11,25,11,39,8.70
2011,11,25,11,40,8.70
2011,11,25,11,41,8.80
2011,11,25,11,42,8.70
2011,11,25,11,43,8.80
2011,11,25,11,44,8.80
2011,11,25,11,45,8.70
2011,11,25,11,46,8.70
2011,11,25,11,47,8.80
2011,11,25,11,48,8.80
2011,11,25,11,49,8.80
2011,11,25,11,50,8.80
2011,11,25,11,51,8.80
2011,11,25,11,52,8.90
2011,11,25,11,53,8.90
2011,11,25,11,54,8.90
2011,11,25,11,55,8.90
2011,11,25,11,56,8.90
2011,11,25,11,57,8.80
2011,11,25,11,58,8.80
2011,11,25,11,59,8.80
2011,11,25,12,00,8.80
2011,11,25,12,01,8.80
2011,11,25,12,02,8.90
2011,11,25,12,03,8.90
2011,11,25,12,04,8.90
2011,11,25,12,05,8.90
2011,11,25,12,06,9.00
2011,11,25,12,07,9.00
2011,11,25,12,08,9.00
2011,11,25,12,09,9.00
2011,11,25,12,10,9.00
2011,11,25,12,11,9.00
2011,11,25,12,12,9.00
2011,11,25,12,13,9.00
2011,11,25,12,14,9.10
2011,11,25,12,15,9.10
2011,11,25,12,16,9.10
2011,11,25,12,17,9.10
2011,11,25,12,18,9.10
2011,11,25,12,19,9.10
2011,11,25,12,20,9.20
2011,11,25,12,21,9.20
2011,11,25,12,22,9.20
2011,11,25,12,23,9.30
2011,11,25,12,24,9.30
2011,11,25,12,25,9.30
2011,11,25,12,26,9.30
2011,11,25,12,27,9.20
2011,11,25,12,28,9.30
2011,11,25,12,29,9.30
2011,11,25,12,30,9.30
2011,11,25,12,31,9.30
2011,11,25,12,32,9.20
2011,11,25,12,33,9.10
2011,11,25,12,34,9.00
2011,11,25,12,35,8.90
2011,11,25,12,36,8.90
2011,11,25,12,37,8.90
2011,11,25,12,38,8.80
2011,11,25,12,39,8.80
2011,11,25,12,40,8.70
2011,11,25,12,41,8.70
2011,11,25,12,42,8.70
2011,11,25,12,43,8.70
2011,11,25,12,44,8.80
2011,11,25,12,45,8.80
2011,11,25,12,46,8.80
2011,11,25,12,47,8.80
2011,11,25,12,48,8.80
2011,11,25,12,49,8.80
2011,11,25,12,50,8.70
2011,11,25,12,51,8.70
2011,11,25,12,52,8.70
2011,11,25,12,53,8.70
2011,11,25,12,54,8.70
2011,11,25,12,55,8.70
2011,11,25,12,56,8.70
2011,11,25,12,57,8.70
2011,11,25,12,58,8.60
2011,11,25,12,59,8.70
2011,11,25,13,00,8.70
2011,11,25,13,01,8.60
2011,11,25,13,02,8.60
2011,11,25,13,03,8.60
2011,11,25,13,04,8.60
2011,11,25,13,05,8.50
2011,11,25,13,06,8.40
2011,11,25,13,07,8.40
2011,11,25,13,08,8.30
2011,11,25,13,09,8.30
2011,11,25,13,10,8.30
2011,11,25,13,11,8.30
2011,11,25,13,12,8.40
2011,11,25,13,13,8.40
2011,11,25,13,14,8.40
2011,11,25,13,15,8.40
2011,11,25,13,16,8.40
2011,11,25,13,17,8.50
2011,11,25,13,18,8.50
2011,11,25,13,19,8.50
2011,11,25,13,20,8.50
2011,11,25,13,21,8.50
2011,11,25,13,22,8.60
2011,11,25,13,23,8.50
2011,11,25,13,24,8.60
2011,11,25,13,25,8.60
2011,11,25,13,26,8.50
2011,11,25,13,27,8.50
2011,11,25,13,28,8.50
2011,11,25,13,29,8.50
2011,11,25,13,30,8.50
2011,11,25,13,31,8.50
2011,11,25,13,32,8.50
2011,11,25,13,33,8.50
2011,11,25,13,34,8.50
2011,11,25,13,35,8.50
2011,11,25,13,36,8.60
2011,11,25,13,37,8.50
2011,11,25,13,38,8.50
2011,11,25,13,39,8.50
2011,11,25,13,40,8.50
2011,11,25,13,41,8.60
2011,11,25,13,42,8.60
2011,11,25,13,43,8.60
2011,11,25,13,44,8.60
2011,11,25,13,45,8.60
2011,11,25,13,46,8.60
2011,11,25,13,47,8.60
2011,11,25,13,48,8.60
2011,11,25,13,49,8.60
2011,11,25,13,50,8.60
2011,11,25,13,51,8.50
2011,11,25,13,52,8.40
2011,11,25,13,53,8.30
2011,11,25,13,54,8.30
2011,11,25,13,55,8.30
2011,11,25,13,56,8.30
2011,11,25,13,57,8.20
2011,11,25,13,58,8.20
2011,11,25,13,59,8.20
2011,11,25,14,00,8.20
2011,11,25,14,01,8.10
2011,11,25,14,02,8.10
2011,11,25,14,03,8.20
2011,11,25,14,04,8.20
2011,11,25,14,05,8.20
2011,11,25,14,06,8.20
2011,11,25,14,07,8.10
2011,11,25,14,08,8.10
2011,11,25,14,09,8.10
2011,11,25,14,10,8.10
2011,11,25,14,11,8.10
2011,11,25,14,12,8.10
2011,11,25,14,13,8.10
2011,11,25,14,14,8.10
2011,11,25,14,15,8.10
2011,11,25,14,16,8.00
2011,11,25,14,17,8.00
2011,11,25,14,18,8.00
2011,11,25,14,19,8.00
2011,11,25,14,20,8.00
2011,11,25,14,21,8.00
2011,11,25,14,22,8.00
2011,11,25,14,23,8.00
2011,11,25,14,24,8.00
2011,11,25,14,25,8.00
2011,11,25,14,26,8.00
2011,11,25,14,27,8.00
2011,11,25,14,28,8.00
2011,11,25,14,29,8.00
2011,11,25,14,30,7.90
2011,11,25,14,31,7.90
2011,11,25,14,32,8.00
2011,11,25,14,33,8.00
2011,11,25,14,34,8.00
2011,11,25,14,35,8.00
2011,11,25,14,36,8.00
2011,11,25,14,37,8.00
2011,11,25,14,38,7.90
2011,11,25,14,39,8.00
2011,11,25,14,40,8.00
2011,11,25,14,41,7.90
2011,11,25,14,42,7.90
2011,11,25,14,43,7.90
2011,11,25,14,44,7.90
2011,11,25,14,45,7.90
2011,11,25,14,46,7.90
2011,11,25,14,47,7.90
2011,11,25,14,48,7.90
2011,11,25,14,49,7.80
2011,11,25,14,50,7.80
2011,11,25,14,51,7.80
2011,11,25,14,52,7.80
2011,11,25,14,53,7.80
2011,11,25,14,54,7.80
2011,11,25,14,55,7.80
2011,11,25,14,56,7.80
2011,11,25,14,57,7.80
2011,11,25,14,58,7.80
2011,11,25,14,59,7.80
2011,11,25,15,00,7.80
2011,11,25,15,01,7.80
2011,11,25,15,02,7.80
2011,11,25,15,03,7.80
2011,11,25,15,04,7.80
2011,11,25,15,05,7.80
2011,11,25,15,06,7.80
2011,11,25,15,07,7.80
2011,11,25,15,08,7.80
2011,11,25,15,09,7.80
2011,11,25,15,10,7.70
2011,11,25,15,11,7.70
2011,11,25,15,12,7.70
2011,11,25,15,13,7.70
2011,11,25,15,14,7.70
2011,11,25,15,15,7.70
2011,11,25,15,16,7.70
2011,11,25,15,17,7.70
2011,11,25,15,18,7.70
2011,11,25,15,19,7.70
2011,11,25,15,20,7.70
2011,11,25,15,21,7.70
2011,11,25,15,22,7.70
2011,11,25,15,23,7.70
2011,11,25,15,24,7.60
2011,11,25,15,25,7.60
2011,11,25,15,26,7.60
2011,11,25,15,27,7.60
2011,11,25,15,28,7.60
2011,11,25,15,29,7.60
2011,11,25,15,30,7.60
2011,11,25,15,31,7.60
2011,11,25,15,32,7.50
2011,11,25,15,33,7.50
2011,11,25,15,34,7.50
2011,11,25,15,35,7.50
2011,11,25,15,36,7.50
2011,11,25,15,37,7.40
2011,11,25,15,38,7.40
2011,11,25,15,39,7.40
2011,11,25,15,40,7.40
2011,11,25,15,41,7.40
2011,11,25,15,42,7.40
2011,11,25,15,43,7.40
2011,11,25,15,44,7.40
2011,11,25,15,45,7.40
2011,11,25,15,46,7.30
2011,11,25,15,47,7.30
2011,11,25,15,48,7.30
2011,11,25,15,49,7.30
2011,11,25,15,50,7.30
2011,11,25,15,51,7.30
2011,11,25,15,52,7.30
2011,11,25,15,53,7.30
2011,11,25,15,54,7.30
2011,11,25,15,55,7.20
2011,11,25,15,56,7.20
2011,11,25,15,57,7.20
2011,11,25,15,58,7.20
2011,11,25,15,59,7.20
2011,11,25,16,00,7.20
2011,11,25,16,01,7.20
2011,11,25,16,02,7.20
2011,11,25,16,03,7.20
2011,11,25,16,04,7.20
2011,11,25,16,05,7.20
2011,11,25,16,06,7.20
2011,11,25,16,07,7.20
2011,11,25,16,08,7.20
2011,11,25,16,09,7.10
2011,11,25,16,10,7.10
2011,11,25,16,11,7.10
2011,11,25,16,12,7.10
2011,11,25,16,13,7.10
2011,11,25,16,14,7.10
2011,11,25,16,15,7.10
2011,11,25,16,16,7.10
2011,11,25,16,17,7.00
2011,11,25,16,18,7.00
2011,11,25,16,19,7.00
2011,11,25,16,20,7.00
2011,11,25,16,21,7.00
2011,11,25,16,22,7.00
2011,11,25,16,23,7.00
2011,11,25,16,24,7.00
2011,11,25,16,25,7.00
2011,11,25,16,26,7.00
2011,11,25,16,27,7.00
2011,11,25,16,28,7.00
2011,11,25,16,29,7.00
2011,11,25,16,30,7.00
2011,11,25,16,31,7.00
2011,11,25,16,32,7.00
2011,11,25,16,33,7.00
2011,11,25,16,34,7.00
2011,11,25,16,35,7.00
2011,11,25,16,36,7.00
2011,11,25,16,37,6.90
2011,11,25,16,38,6.90
2011,11,25,16,39,6.90
2011,11,25,16,40,6.90
2011,11,25,16,41,6.90
2011,11,25,16,42,6.90
2011,11,25,16,43,6.90
2011,11,25,16,44,6.90
2011,11,25,16,45,6.90
2011,11,25,16,46,6.90
2011,11,25,16,47,6.90
2011,11,25,16,48,7.00
2011,11,25,16,49,7.00
2011,11,25,16,50,7.00
2011,11,25,16,51,7.00
2011,11,25,16,52,7.00
2011,11,25,16,53,7.00
2011,11,25,16,54,7.00
2011,11,25,16,55,7.00
2011,11,25,16,56,7.10
2011,11,25,16,57,7.10
2011,11,25,16,58,7.10
2011,11,25,16,59,7.10
2011,11,25,17,00,7.10
2011,11,25,17,01,7.10
2011,11,25,17,02,7.00
2011,11,25,17,03,7.00
2011,11,25,17,04,7.00
2011,11,25,17,05,7.00
2011,11,25,17,06,7.00
2011,11,25,17,07,7.00
2011,11,25,17,08,7.00
2011,11,25,17,09,7.00
2011,11,25,17,10,7.00
2011,11,25,17,11,7.00
2011,11,25,17,12,6.90
2011,11,25,17,13,6.90
2011,11,25,17,14,6.90
2011,11,25,17,15,6.90
2011,11,25,17,16,6.90
2011,11,25,17,17,6.90
2011,11,25,17,18,6.90
2011,11,25,17,19,6.90
2011,11,25,17,20,6.80
2011,11,25,17,21,6.80
2011,11,25,17,22,6.80
2011,11,25,17,23,6.80
2011,11,25,17,24,6.80
2011,11,25,17,25,6.70
2011,11,25,17,26,6.70
2011,11,25,17,27,6.70
2011,11,25,17,28,6.70
2011,11,25,17,29,6.70
2011,11,25,17,30,6.70
2011,11,25,17,31,6.70
2011,11,25,17,32,6.70
2011,11,25,17,33,6.70
2011,11,25,17,34,6.70
2011,11,25,17,35,6.70
2011,11,25,17,36,6.70
2011,11,25,17,37,6.70
2011,11,25,17,38,6.70
2011,11,25,17,39,6.70
2011,11,25,17,40,6.70
2011,11,25,17,41,6.70
2011,11,25,17,42,6.60
2011,11,25,17,43,6.60
2011,11,25,17,44,6.70
2011,11,25,17,45,6.60
2011,11,25,17,46,6.70
2011,11,25,17,47,6.60
2011,11,25,17,48,6.60
2011,11,25,17,49,6.70
2011,11,25,17,50,6.70
2011,11,25,17,51,6.70
2011,11,25,17,52,6.70
2011,11,25,17,53,6.70
2011,11,25,17,54,6.70
2011,11,25,17,55,6.70
2011,11,25,17,56,6.70
2011,11,25,17,57,6.70
2011,11,25,17,58,6.70
2011,11,25,17,59,6.70
2011,11,25,18,00,6.70
2011,11,25,18,01,6.70
2011,11,25,18,02,6.70
2011,11,25,18,03,6.70